Current Version              Previous Version:    01  02  03  04  05  06  07  08  09  10  11  12  13  14  15  16  17  18  19  20  21  22  23  24  25  26  27  28  29  30  
   31  32  33  34  35  36  37  38  39  40  41  42  43  44  45  46  47  48  49  50  51  52  53  54  55  56  57  58  59  60  

[Printable]
331
ASUS44 KEWX 202202
RWRTX
SOUTH TEXAS REGIONAL WEATHER ROUNDUP
NATIONAL WEATHER SERVICE AUSTIN/SAN ANTONIO TX
500 PM CDT MON OCT 20 2014

NOTE: "FAIR" INDICATED FEW OR NO CLOUDS BELOW 12,000 FEET WITH NO
SIGNIFICANT WEATHER AND/OR OBSTRUCTIONS TO VISIBILITY.

* - THESE STATIONS ARE NOT NWS OR FAA STATIONS...AND ARE NOT SUBJECT
    TO NWS AND FAA QUALITY CONTROL.

TXZ171-172-183>190-202300-
TEXAS HILL COUNTRY AND EDWARDS PLATEAU

CITY           SKY/WX    TMP DP  RH WIND       PRES   REMARKS
JUNCTION       MOSUNNY   80  54  40 E9        30.01F
*LLANO         PTSUNNY   79  57  47 NE8       30.04S
BURNET         PTSUNNY   79  32  18 E8        30.03F
*HORSESHOE BAY PTSUNNY   80  54  40 E3        30.01S
*KERRVILLE     PTSUNNY   76  57  51 E6        30.02F
*FREDERICKSBRG PTSUNNY   76  55  48 E7        30.02F
*ROCKSPRINGS   PTSUNNY   77  54  44 NE7       30.05S
*BOERNE STAGE  PTSUNNY   79  54  41 E8        30.02S
*CASTROVILLE   PTSUNNY   84  53  34 E7        29.99F
HONDO          PTSUNNY   79  57  46 E12       29.99F
*UVALDE        PTSUNNY   82  57  42 E9        29.97F
DEL RIO        PTSUNNY   79  63  57 SE7       29.96F
LAUGHLIN AFB   PTSUNNY   79  62  55 SE5       29.97F
CARRIZO SPRGS  PTSUNNY   82  61  47 E5        29.92F
$$

TXZ173-191>194-202-209-217>225-228-202300-
CENTRAL AND SOUTH CENTRAL TEXAS

CITY           SKY/WX    TMP DP  RH WIND       PRES   REMARKS
GEORGETOWN     MOSUNNY   81  57  44 MISG      30.00F
AUSTIN/BERGSTM PTSUNNY   81  59  47 NE8       29.99F
AUSTIN/MABRY   PTSUNNY   81  59  47 SE7       30.00F
*AUSTIN/EXEC   PTSUNNY   81  59  47 E8        30.00F
*LAGO VISTA    PTSUNNY   80  56  43 SE8       30.02F
SAN MARCOS     MOSUNNY   81  57  44 E9        30.00F
NEW BRAUNFELS  CLOUDY    83  57  41 E9        29.98S
RANDOLPH AFB   PTSUNNY   82  57  42 E9        29.98F
PT SAN ANTONIO PTSUNNY   83  57  41 E7        29.96F
SAN ANTONIO    PTSUNNY   82  57  42 NE12      29.98F
STINSON FIELD  MOSUNNY   85  58  39 E9        29.96F
*PLEASANTON    MOSUNNY   83  57  41 NE8       29.96S
*LA GRANGE     MOSUNNY   82  62  51 NE7       29.97F
*GIDDINGS      SUNNY     79  58  47 NE5       30.04S
*GONZALES      SUNNY     82  61  49 NE8       29.97F
$$

TXZ163>164-176>182-195>201-210>213-226-227-235-202300-
SOUTHEAST TEXAS

CITY           SKY/WX    TMP DP  RH WIND       PRES   REMARKS
COLLEGE STN    MOSUNNY   79  60  52 E7        30.00S
*BRYAN         SUNNY     79  61  53 NE5       30.01F
*CALDWELL      SUNNY     79  59  50 E6        30.03F
*CROCKETT      SUNNY     81  63  54 E5        30.04F
*BRENHAM       SUNNY     82  59  45 NE8       30.00F
HUNTSVILLE     MOSUNNY   78  59  51 CALM      30.00F
CONROE         SUNNY     79  59  50 VRB3      30.00F
HOUSTON BUSH   MOSUNNY   80  57  45 N6        29.99S
HOUSTON HOBBY  MOSUNNY   80  61  52 E5        29.98S
*HOUSTON SW AP MOSUNNY   75  59  57 E7        29.98F
PEARLAND       SUNNY     81  61  50 E9        30.00S
HOUSTON HOOKS  MOSUNNY   80  59  48 NE7       29.99S
ELLINGTON FLD  MOSUNNY   79  61  53 E6        30.00S
SUGAR LAND     SUNNY     82  59  45 NE10      29.98S
*HOUSTON EXEC  SUNNY     81 N/A N/A NE6       29.99F
*CLEVELAND MUN SUNNY     80  62  55 CALM      30.01S
*WHARTON       PTSUNNY   82  59  46 NE6       29.98S
*COLUMBUS      FAIR      80  61  52 NE8       29.98S
$$

TXZ214>216-236>238-202300-
THE UPPER TEXAS COAST

CITY           SKY/WX    TMP DP  RH WIND       PRES   REMARKS
*ORANGE        MOSUNNY   79  57  47 N5        30.00F
PORT ARTHUR    MOSUNNY   82  54  37 NE6       29.98F
GALVESTON      MOSUNNY   78  68  71 E7        29.99S
ANGLETON       NOT AVBL
*BAY CITY        N/A     81  65  57 NE8       29.96S
PALACIOS       PTSUNNY   82  65  56 E9        29.96S
$$

TXZ229>234-239>247-202300-
TEXAS COASTAL BEND AND RIO GRANDE PLAINS

CITY           SKY/WX    TMP DP  RH WIND       PRES   REMARKS
VICTORIA       PTSUNNY   84  62  47 NE12      29.96F
*BEEVILLE      CLOUDY    80  61  52 E9        29.96S
ROCKPORT       PTSUNNY   78  70  76 NE9       29.95F
*PORT ARANSAS  PTSUNNY   77  70  78 E10       29.95R
*PORT LAVACA   PTSUNNY   82  69  64 SE14      29.96S
*INGLESIDE     DRIZZLE   73  71  91 CALM      29.95F
CORPUS CHRISTI PTSUNNY   74  70  87 NE9       29.95F
CORPUS NAS     LGT RAIN  71  71 100 SE5       29.94F FOG
*ROBSTOWN      CLOUDY    76  71  84 E9        29.95F
ALICE          PTSUNNY   79  68  69 E16       29.94F
KINGSVILLE NAS PTSUNNY   79  71  76 E14       29.94S
COTULLA        CLOUDY    86  59  39 NE13      29.93F
*FAITH RANCH   MOSUNNY   82  61  47 SE8       29.94F
LAREDO         PTSUNNY   87  65  47 E9        29.94F
$$

TXZ248>255-202300-
DEEP SOUTH TEXAS

CITY           SKY/WX    TMP DP  RH WIND       PRES   REMARKS
BROWNSVILLE    MOSUNNY   86  67  52 NE10      29.88S
PORT ISABEL    MOSUNNY   84  70  62 E9        29.89S
*SOUTH PADRE   MOSUNNY  N/A N/A N/A E8        29.89R
HARLINGEN      PTSUNNY   83  70  64 NE10      29.88S
*HEBBRONVILLE  CLOUDY    80  67  63 NE12      29.95S
MCALLEN        MOSUNNY   84  71  65 NE14      29.89S
*WESLACO       CLOUDY    85  65  52 N10       29.88S
FALFURRIAS     CLOUDY    79  68  69 NE16      29.92S
EDINBURG       MOSUNNY   78  71  77 NE8       29.90S
*ZAPATA        CLOUDY    85  62  45 NE6       29.90F
$$

TXZ213>215-236>238-242>244-246-247-251-254-255-202300-
CMAN STATIONS

STATION/POSITION TIME  TEMP    WIND        PRES    WAVE
                       AIR SEA DIR/SP/G            HT/PER
                 (UTC) (F)     (DEG/KT/KT) (MB)    (FT/S)
SABINE PASS      2100   78 76   70/  5/  8 1015.4
SEA RIM ST PARK  2100   77      20/  7/  9 1016.0
NORTH JETTY/GLS  2100   76 79  110/  9/ 10   N/A
EAGLE POINT      2100   76 77   50/  7/ 10 1015.5
MORGANS POINT    2100   78      80/  7/  9 1015.3
MISSION/ARANSAS  2100           80/  9     1016.0
PORT O`CONNOR    2100           80/ 16/ 19   N/A
PORT ARANSAS     2100   78 78   40/ 16/ 18 1014.5
MALAQUITE BEACH  2100   74 78  360/  8/  9 1013.2
BAFFIN BAY       2100   72 85   60/ 13/ 15 1013.3
PORT ISABEL      2100   81 80   60/  9/ 13 1012.5
$$

GMZ080-GMZ150>470-202300-
OFFSHORE BUOY REPORTS

STATION/POSITION TIME  TEMP    WIND        PRES    WAVE
                       AIR SEA DIR/SP/G            HT/PER
                 (UTC) (F)     (DEG/KT/KT) (MB)    (FT/S)
20 E GALVESTON   2200   75 79   60/ 12/ 14 1014.8    3/ 6
90 E PT ARANSAS  2200   73 81   90/ 12/ 17 1014.3    4/ 6
35 NE PT MANSFLD 2100   80 81   70/ 12/ 14 1012.3    4/ 7
200 E PT ISABEL  2100   81 82   80/ 14/ 16 1011.8    4/ 6
$$